When you browse on this site, cookies collect data to enhance your experience and personalize the content and advertising you see.
Visit our Privacy Policy to learn more. By continuing to use the site, you agree to this use of cookies and data.
  • In Portugal
  • List of Countries
  • For 7 days
  • Water Temperature
  • Satellite Maps
  • Weather Map
  • Weather Widgets
  • user-avatar
    Login

    Hourly Weather Grzmiaca

    Today, 18 December, Tuesday

    Time Temperature Precipitation Wind Pressure Humidity
    00:00 -3°C° 0 mm 2 mps 724 mmHg 91%
    01:00 -1°C° 0 mm 1 mps 724 mmHg 92%
    02:00 -1°C° 0 mm 1 mps 724 mmHg 92%
    03:00 -1°C° 0 mm 1 mps 724 mmHg 92%
    04:00 -2°C° 0 mm 2 mps 724 mmHg 92%
    05:00 -2°C° 0 mm 2 mps 724 mmHg 92%
    06:00 0°C° 0 mm 1 mps 725 mmHg 92%
    07:00 -2°C° 0 mm 2 mps 725 mmHg 92%
    08:00 -2°C° 0 mm 2 mps 725 mmHg 91%
    09:00 -1°C° 0 mm 2 mps 725 mmHg 91%
    10:00 -1°C° 0 mm 2 mps 725 mmHg 90%
    11:00 +2°C° 0 mm 1 mps 725 mmHg 90%
    12:00 +2°C° 0 mm 1 mps 725 mmHg 90%
    13:00 +3°C° 0 mm 1 mps 725 mmHg 89%
    14:00 +2°C° 0 mm 1 mps 725 mmHg 90%
    15:00 +1°C° 0 mm 1 mps 725 mmHg 91%
    16:00 +1°C° 0 mm 1 mps 725 mmHg 91%
    17:00 0°C° 0 mm 1 mps 725 mmHg 91%
    18:00 0°C° 0 mm 1 mps 725 mmHg 91%
    19:00 -1°C° 0 mm 1 mps 725 mmHg 91%
    20:00 -1°C° 0 mm 1 mps 725 mmHg 91%
    21:00 -3°C° 0 mm 2 mps 724 mmHg 90%
    22:00 -3°C° 0 mm 2 mps 724 mmHg 90%
    23:00 -3°C° 0 mm 2 mps 724 mmHg 90%

    Tomorrow, 19 December, Wednesday

    Time Temperature Precipitation Wind Pressure Humidity
    00:00 -3°C° 0 mm 2 mps 724 mmHg 90%
    01:00 -4°C° 0 mm 2 mps 724 mmHg 90%
    02:00 -4°C° 0 mm 2 mps 723 mmHg 90%
    03:00 -5°C° 0 mm 3 mps 723 mmHg 90%
    04:00 -5°C° 0 mm 3 mps 723 mmHg 90%
    05:00 -5°C° 0 mm 3 mps 722 mmHg 89%
    06:00 -5°C° 0 mm 3 mps 722 mmHg 89%
    07:00 -5°C° 0 mm 3 mps 722 mmHg 88%
    08:00 -4°C° 0 mm 3 mps 722 mmHg 86%
    09:00 -4°C° 0 mm 4 mps 722 mmHg 83%
    10:00 -3°C° 0 mm 4 mps 722 mmHg 80%
    11:00 -3°C° 0 mm 4 mps 722 mmHg 79%
    12:00 -2°C° 0 mm 4 mps 721 mmHg 78%
    13:00 -2°C° 0 mm 5 mps 721 mmHg 76%
    14:00 -3°C° 0 mm 4 mps 721 mmHg 78%
    15:00 -3°C° 0 mm 4 mps 721 mmHg 80%
    16:00 -4°C° 0 mm 4 mps 720 mmHg 82%
    17:00 -4°C° 0 mm 4 mps 720 mmHg 82%
    18:00 -4°C° 0 mm 4 mps 720 mmHg 82%
    19:00 -4°C° 0 mm 4 mps 720 mmHg 82%
    20:00 -4°C° 0 mm 4 mps 719 mmHg 81%
    21:00 -4°C° 0 mm 4 mps 719 mmHg 81%
    22:00 -4°C° 0 mm 4 mps 719 mmHg 80%
    23:00 -4°C° 0 mm 4 mps 719 mmHg 80%

    Day after tomorrow, 20 December, Thursday

    Time Temperature Precipitation Wind Pressure Humidity
    00:00 -5°C° 0 mm 4 mps 719 mmHg 80%
    01:00 -5°C° 0 mm 4 mps 719 mmHg 80%
    02:00 -5°C° 0 mm 4 mps 719 mmHg 80%
    03:00 -5°C° 0 mm 3 mps 719 mmHg 80%
    04:00 -5°C° 0 mm 3 mps 719 mmHg 81%
    05:00 -6°C° 0 mm 3 mps 719 mmHg 81%
    06:00 -6°C° 0 mm 3 mps 719 mmHg 81%
    07:00 -6°C° 0 mm 3 mps 719 mmHg 81%
    08:00 -5°C° 0 mm 3 mps 719 mmHg 80%
    09:00 -5°C° 0 mm 3 mps 719 mmHg 79%
    10:00 -5°C° 0 mm 3 mps 719 mmHg 79%
    11:00 -4°C° 0.1 mm 3 mps 719 mmHg 79%
    12:00 -4°C° 0.1 mm 3 mps 719 mmHg 80%
    13:00 -2°C° 0.1 mm 3 mps 719 mmHg 81%
    14:00 -2°C° 0.1 mm 3 mps 719 mmHg 83%
    15:00 -2°C° 0.1 mm 3 mps 719 mmHg 86%
    16:00 -2°C° 0.1 mm 3 mps 719 mmHg 88%
    17:00 -2°C° 0 mm 3 mps 719 mmHg 88%
    18:00 -2°C° 0 mm 3 mps 719 mmHg 89%
    19:00 -2°C° 0 mm 3 mps 719 mmHg 89%
    20:00 -1°C° 0 mm 3 mps 719 mmHg 90%
    21:00 -1°C° 0 mm 3 mps 719 mmHg 90%
    22:00 -1°C° 0 mm 3 mps 720 mmHg 90%
    23:00 -1°C° 0 mm 3 mps 720 mmHg 91%

    21 December, Friday

    Time Temperature Precipitation Wind Pressure Humidity
    00:00 -1°C° 0 mm 3 mps 720 mmHg 91%
    01:00 -1°C° 0 mm 3 mps 720 mmHg 91%
    02:00 -2°C° 0 mm 4 mps 720 mmHg 91%
    03:00 -2°C° 0 mm 4 mps 720 mmHg 91%
    04:00 -2°C° 0 mm 4 mps 720 mmHg 91%
    05:00 -2°C° 0 mm 4 mps 720 mmHg 90%
    06:00 -2°C° 0 mm 4 mps 720 mmHg 90%
    07:00 -1°C° 0 mm 4 mps 720 mmHg 89%
    08:00 -1°C° 0 mm 4 mps 719 mmHg 88%
    09:00 -1°C° 0 mm 4 mps 719 mmHg 88%
    10:00 -1°C° 0 mm 4 mps 719 mmHg 87%
    11:00 -1°C° 0 mm 4 mps 718 mmHg 86%
    12:00 0°C° 0 mm 5 mps 718 mmHg 85%
    13:00 0°C° 0 mm 5 mps 717 mmHg 85%
    14:00 0°C° 0.3 mm 5 mps 716 mmHg 85%
    15:00 -1°C° 0.3 mm 6 mps 716 mmHg 85%
    16:00 -1°C° 0.3 mm 6 mps 715 mmHg 85%
    17:00 -1°C° 0.8 mm 7 mps 714 mmHg 84%
    18:00 -1°C° 0.8 mm 7 mps 713 mmHg 84%
    19:00 -1°C° 0.8 mm 8 mps 713 mmHg 84%
    20:00 0°C° 0.9 mm 8 mps 712 mmHg 85%
    21:00 +2°C° 0.9 mm 7 mps 712 mmHg 86%
    22:00 +3°C° 0.9 mm 7 mps 712 mmHg 87%
    23:00 +3°C° 0.1 mm 7 mps 712 mmHg 88%

    22 December, Saturday

    Time Temperature Precipitation Wind Pressure Humidity
    00:00 +3°C° 0.1 mm 7 mps 712 mmHg 89%
    01:00 +3°C° 0.1 mm 6 mps 712 mmHg 90%
    02:00 +3°C° 0.1 mm 6 mps 713 mmHg 89%
    03:00 +2°C° 0.1 mm 5 mps 713 mmHg 88%
    04:00 +1°C° 0.1 mm 5 mps 714 mmHg 87%
    05:00 +1°C° 0 mm 5 mps 714 mmHg 86%
    06:00 +1°C° 0 mm 6 mps 714 mmHg 85%
    07:00 +1°C° 0 mm 6 mps 715 mmHg 83%
    08:00 +1°C° 0 mm 6 mps 715 mmHg 83%
    09:00 +2°C° 0 mm 6 mps 715 mmHg 82%
    10:00 +2°C° 0 mm 6 mps 715 mmHg 82%
    11:00 +2°C° 0 mm 6 mps 715 mmHg 81%
    12:00 +3°C° 0 mm 5 mps 715 mmHg 81%
    13:00 +3°C° 0 mm 5 mps 714 mmHg 81%
    14:00 +3°C° 0 mm 5 mps 714 mmHg 82%
    15:00 +3°C° 0 mm 5 mps 713 mmHg 84%
    16:00 +3°C° 0 mm 6 mps 713 mmHg 86%
    17:00 +3°C° 0.3 mm 6 mps 713 mmHg 87%
    18:00 +4°C° 0.3 mm 6 mps 713 mmHg 87%
    19:00 +4°C° 0.3 mm 6 mps 713 mmHg 88%
    20:00 +3°C° 0 mm 6 mps 713 mmHg 86%
    21:00 +3°C° 0 mm 6 mps 714 mmHg 83%
    22:00 +2°C° 0 mm 6 mps 714 mmHg 81%
    23:00 +2°C° 0.1 mm 7 mps 714 mmHg 80%

    23 December, Sunday

    Time Temperature Precipitation Wind Pressure Humidity
    00:00 +2°C° 0.1 mm 7 mps 715 mmHg 80%
    01:00 +1°C° 0.1 mm 8 mps 715 mmHg 79%
    02:00 +2°C° 0.1 mm 7 mps 716 mmHg 80%
    03:00 +2°C° 0.1 mm 7 mps 716 mmHg 81%
    04:00 +2°C° 0.1 mm 7 mps 717 mmHg 82%
    05:00 +2°C° 0 mm 6 mps 717 mmHg 82%
    06:00 +1°C° 0 mm 6 mps 717 mmHg 83%
    07:00 +1°C° 0 mm 6 mps 718 mmHg 84%
    08:00 +1°C° 0.1 mm 6 mps 718 mmHg 83%
    09:00 +2°C° 0.1 mm 6 mps 719 mmHg 82%
    10:00 +2°C° 0.1 mm 6 mps 719 mmHg 81%
    11:00 +2°C° 0.1 mm 7 mps 719 mmHg 79%
    12:00 +2°C° 0.1 mm 7 mps 720 mmHg 77%
    13:00 +3°C° 0.1 mm 7 mps 720 mmHg 74%
    14:00 +2°C° 0 mm 7 mps 720 mmHg 76%
    15:00 +2°C° 0 mm 6 mps 721 mmHg 77%
    16:00 +2°C° 0 mm 6 mps 721 mmHg 79%
    17:00 +1°C° 0 mm 6 mps 721 mmHg 80%
    18:00 +1°C° 0 mm 5 mps 722 mmHg 82%
    19:00 +1°C° 0 mm 5 mps 722 mmHg 84%
    20:00 0°C° 0 mm 5 mps 722 mmHg 85%
    21:00 0°C° 0 mm 4 mps 723 mmHg 86%
    22:00 0°C° 0 mm 4 mps 723 mmHg 87%
    23:00 0°C° 0 mm 3 mps 723 mmHg 88%
    Show more